This demonstration page uses our WeatherBlox Daily Observations layout. Learn more.

Left ArrowRight Arrow

Hourly Observations for May 17, 2020

Temp ( °F °C ) Dew Point ( °F °C ) Humidity (%) Winds ( mph kmh ) Pressure ( in mb ) Visibility ( mi km ) Precip ( " mm )
12:28 am 00:28 Cloudy 65 18.3 65 18.3 100 100 SSE 8 13 29.79 1009 10 16 0.00 0.00
12:52 am 00:52 Cloudy 65 18.3 65 18.3 100 100 SSE 5 7 29.79 1009 10 16 0.00 0.00
1:36 am 01:36 Cloudy with Light Rain 66 18.9 64 17.8 93 93 Calm 29.79 1009 10 16 0.00 0.00
1:52 am 01:52 Cloudy with Light Rain 66 18.9 65 18.3 96 96 Calm 29.78 1009 10 16 0.00 0.00
2:13 am 02:13 Mostly Cloudy with Light Rain 66 18.9 65 18.3 96 96 Calm 29.77 1008 10 16 0.00 0.00
2:52 am 02:52 Cloudy with Light Rain 65 18.3 64 17.8 97 97 NNE 3 6 29.75 1008 10 16 0.01 0.25
3:40 am 03:40 Cloudy with Light Rain 64 17.8 64 17.8 100 100 NNW 8 13 29.75 1008 5 8 0.03 0.76
3:52 am 03:52 Cloudy with Light Rain 64 17.8 64 17.8 100 100 N 5 7 29.75 1007 5 8 0.04 1.02
4:03 am 04:03 Cloudy with Light Rain 65 18.3 65 18.3 100 100 ENE 6 9 29.74 1007 9 14 0.01 0.25
4:52 am 04:52 Cloudy 65 18.3 64 17.8 97 97 ENE 6 9 29.74 1007 10 16 0.02 0.51
5:52 am 05:52 Cloudy 63 17.2 63 17.2 100 100 NW 6 9 29.74 1007 7 11 0.00 0.00
6:00 am 06:00 Cloudy with Mist and Fog 63 17.2 63 17.2 100 100 NW 7 11 29.75 1007 5 8 0.00 0.00
6:05 am 06:05 Cloudy with Mist and Fog 63 17.2 63 17.2 100 100 NW 7 11 29.75 1007 2 2 0.00 0.00
6:09 am 06:09 Mostly Cloudy with Mist and Fog 63 17.2 63 17.2 100 100 NW 6 9 29.75 1007 1 1 0.00 0.00
6:25 am 06:25 Mostly Cloudy with Fog 64 17.8 64 17.8 100 100 NW 7 11 29.75 1008 0 0 0.00 0.00
6:40 am 06:40 Mostly Cloudy with Fog 64 17.8 64 17.8 100 100 NW 9 15 29.75 1008 1 1 0.00 0.00
6:52 am 06:52 Mostly Cloudy with Mist and Fog 64 17.8 64 17.8 100 100 NW 9 15 29.76 1008 1 1 0.00 0.00
6:57 am 06:57 Cloudy with Mist and Fog 64 17.8 64 17.8 100 100 NW 9 15 29.76 1008 2 3 0.00 0.00
7:05 am 07:05 Cloudy 64 17.8 64 17.8 100 100 NNW 8 13 29.76 1008 8 13 0.00 0.00
7:52 am 07:52 Cloudy 64 17.8 63 17.2 96 96 NW 10 17 29.78 1008 10 16 0.00 0.00
8:00 am 08:00 Cloudy 64 17.8 63 17.2 96 96 NW 8 13 29.77 1008 10 16 0.00 0.00
8:52 am 08:52 Cloudy 65 18.3 64 17.8 97 97 NNW 10 17 29.78 1008 10 16 0.00 0.00
9:22 am 09:22 Mostly Cloudy 67 19.4 65 18.3 93 93 NNW 15 24 29.77 1008 10 16 0.00 0.00
9:52 am 09:52 Cloudy 67 19.4 64 17.8 91 91 NNW 16 26 29.78 1009 10 16 0.00 0.00
10:24 am 10:24 Mostly Cloudy 67 19.4 63 17.2 87 87 NNW 18 30 29.79 1009 10 16 0.00 0.00
10:52 am 10:52 Mostly Cloudy 69 20.6 62 16.7 78 78 NW 18 30 29.80 1009 10 16 0.00 0.00
11:36 am 11:36 Partly Cloudy 69 20.6 61 16.1 76 76 NNW 18 30 29.80 1009 10 16 0.00 0.00
11:52 am 11:52 Partly Cloudy 68 20 60 15.6 76 76 NW 16 26 29.82 1010 10 16 0.00 0.00
12:17 pm 12:17 Mostly Cloudy 67 19.4 59 15 76 76 NW 16 26 29.82 1010 10 16 0.00 0.00
12:52 pm 12:52 Mostly Cloudy 67 19.4 57 13.9 71 71 NNW 23 37 29.83 1010 10 16 0.00 0.00
1:16 pm 13:16 Partly Cloudy 66 18.9 56 13.3 70 70 NW 16 26 29.83 1010 10 16 0.00 0.00
1:37 pm 13:37 Mostly Cloudy 65 18.3 56 13.3 73 73 NW 17 28 29.84 1011 10 16 0.00 0.00
1:52 pm 13:52 Mostly Cloudy 66 18.9 55 12.8 68 68 NW 14 22 29.84 1011 10 16 0.00 0.00
2:22 pm 14:22 Partly Cloudy 66 18.9 55 12.8 68 68 NW 14 22 29.84 1010 10 16 0.00 0.00
2:45 pm 14:45 Mostly Cloudy 65 18.3 55 12.8 70 70 NNW 16 26 29.85 1011 10 16 0.00 0.00
2:52 pm 14:52 Mostly Cloudy 65 18.3 54 12.2 68 68 NW 14 22 29.85 1011 10 16 0.00 0.00
3:52 pm 15:52 Mostly Cloudy 64 17.8 54 12.2 70 70 NW 13 20 29.86 1011 10 16 0.00 0.00
4:06 pm 16:06 Mostly Cloudy 65 18.3 54 12.2 68 68 NW 13 20 29.84 1011 10 16 0.00 0.00
4:52 pm 16:52 Mostly Cloudy 67 19.4 55 12.8 66 66 NW 13 20 29.84 1011 10 16 0.00 0.00
5:52 pm 17:52 Sunny 67 19.4 54 12.2 63 63 WNW 9 15 29.83 1010 10 16 0.00 0.00
6:52 pm 18:52 Mostly Sunny 67 19.4 53 11.7 61 61 WNW 12 19 29.83 1010 10 16 0.00 0.00
7:52 pm 19:52 Sunny 64 17.8 54 12.2 70 70 WNW 5 7 29.84 1010 10 16 0.00 0.00
8:52 pm 20:52 Mostly Cloudy 62 16.7 54 12.2 75 75 WNW 5 7 29.83 1010 10 16 0.00 0.00
9:52 pm 21:52 Partly Cloudy 61 16.1 54 12.2 78 78 WNW 6 9 29.85 1011 10 16 0.00 0.00
10:52 pm 22:52 Clear 59 15 53 11.7 81 81 WNW 5 7 29.85 1011 10 16 0.00 0.00
11:52 pm 23:52 Clear 58 14.4 51 10.6 78 78 WNW 7 11 29.85 1011 10 16 0.00 0.00

Powered by AerisWeather